Regional Weather Roundup
Issued by NWS

Home | Current Version | Previous Version | Text Only | Print | Product List | Glossary On
Versions: 1 2 3 4 5 6 7 8 9 10 11 12 13 14 15 16 17 18 19 20 21 22 23 24 25 26 27 28 29 30 31 32 33 34 35 36 37 38 39 40 41 42 43 44 45 46 47 48 49 50
327
ASUS44 KLIX 212005
RWRLA
LOUISIANA WEATHER ROUNDUP
NATIONAL WEATHER SERVICE NEW ORLEANS LA
200 PM CST SUN DEC 21 2014

NOTE: "FAIR" INDICATES FEW OR NO CLOUDS BELOW 12,000 FEET WITH NO
      SIGNIFICANT WEATHER AND/OR OBSTRUCTIONS TO VISIBILITY.
      SKY/WX - SKY CONDITION AND SIGNIFICANT WEATHER.
      TMP - AIR TEMPERATURE.    DP   - DEWPOINT TEMPERATURE.
      RH  - RELATIVE HUMIDITY.  PRES - PRESSURE.
      HX  - HEAT INDEX.         WCI  - WIND CHILL INDEX.

*  THESE STATIONS ARE NOT NWS OR FAA STATIONS AND ARE NOT UNDER
   NWS QUALITY CONTROL.

LAZ040-048-061>063-065-066-069-212100-
SOUTHEAST LOUISIANA

CITY           SKY/WX    TMP DP  RH WIND       PRES   REMARKS
N.O. AUDUBON     N/A     58  52  80 MISG        N/A
N.O. INTL ARPT CLOUDY    57  50  77 NE5       30.02F
N.O. LAKEFRONT CLOUDY    58  51  78 E3        30.03F
N.O. DOWNTOWN* CLOUDY    57  48  72 NE3       30.03F
SLIDELL        CLOUDY    59  51  75 S5        30.02F
BATON ROUGE    CLOUDY    59  48  67 S3        30.02F
BOOTHVILLE     CLOUDY    59  56  89 N6        30.01F
BELLE CHASSE   CLOUDY    60  52  74 NE3       30.02F
BOGALUSA*        N/A     62  50  65 N6        30.03F
GALLIANO*      CLOUDY    59  54  82 MISG      30.03F
NEW ROADS*     FAIR      56  49  75 CALM      30.02F
GONZALES*      MOCLDY    60  54  81 S8        30.01F
HAMMOND*       NOT AVBL
HOUMA*         CLOUDY    57  52  82 NE3       30.03F
PORT FOURCHON* CLOUDY    57  54  88 N10       30.05S

$$

LAZ041-044-053-054-212100-
SOUTHWEST LOUISIANA

CITY           SKY/WX    TMP DP  RH WIND       PRES   REMARKS
LAKE CHARLES   CLOUDY    52  48  86 NE3       30.02F
LAFAYETTE      CLOUDY    52  49  89 SW5       30.04F
PATTERSON      CLOUDY    55  52  88 E3        30.03F
SALT POINT       N/A     59  52  77 SW3       30.01F
NEW IBERIA     CLOUDY    53  50  89 CALM      30.04F
CHENAULT AIRPK NOT AVBL

$$

LAZ027-028-212100-
CENTRAL LOUISIANA

CITY           SKY/WX    TMP DP  RH WIND       PRES   REMARKS
FORT POLK      PTSUNNY   57  50  77 SW13      29.99F
ALEXANDRIA INT SUNNY     55  48  77 SE6       30.00F
ALEXANDRIA     SUNNY     56  48  74 S7        30.01F

$$

LAZ001-002-212100-
NORTHWEST LOUISIANA

CITY           SKY/WX    TMP DP  RH WIND       PRES   REMARKS
SHREVEPORT     PTSUNNY   58  44  60 E5        29.99F
BARKSDALE AFB  NOT AVBL
DTN SHREVEPORT SUNNY     56  43  61 S8        30.00F

$$

LAZ014-016-212100-
NORTHEAST LOUISIANA

CITY           SKY/WX    TMP DP  RH WIND       PRES   REMARKS
MONROE         SUNNY     60  44  55 E7        30.02F
TALLULAH       SUNNY     60  47  61 VRB3      30.03F

$$




USA.gov is the U.S. government's official web portal to all federal, state and local government web resources and services.